TimeAKDT,TemperatureF,Dew PointF,Humidity,Sea Level PressureIn,VisibilityMPH,Wind Direction,Wind SpeedMPH,Gust SpeedMPH,PrecipitationIn,Events,Conditions,WindDirDegrees,DateUTC
12:54 AM,28.0,23.0,81,29.62,10.0,North,10.4,-,N/A,,Partly Cloudy,360,2013-05-01 08:54:00
1:54 AM,27.0,23.0,85,29.60,10.0,North,10.4,-,N/A,,Clear,360,2013-05-01 09:54:00
2:54 AM,26.1,21.9,84,29.59,10.0,North,8.1,-,N/A,,Clear,10,2013-05-01 10:54:00
3:54 AM,25.0,21.0,85,29.57,10.0,NNE,8.1,-,N/A,,Clear,20,2013-05-01 11:54:00
4:54 AM,24.1,21.0,88,29.56,10.0,North,9.2,-,N/A,,Clear,10,2013-05-01 12:54:00
5:54 AM,23.0,19.9,88,29.55,10.0,North,10.4,-,N/A,,Clear,360,2013-05-01 13:54:00
6:54 AM,23.0,19.9,88,29.54,10.0,North,9.2,-,N/A,,Partly Cloudy,360,2013-05-01 14:54:00
7:54 AM,27.0,21.9,81,29.53,10.0,North,8.1,-,N/A,,Partly Cloudy,360,2013-05-01 15:54:00
8:54 AM,37.9,27.0,65,29.53,10.0,NNE,4.6,-,N/A,,Clear,30,2013-05-01 16:54:00
9:54 AM,36.0,27.0,70,29.53,10.0,South,3.5,-,N/A,,Clear,180,2013-05-01 17:54:00
10:54 AM,39.0,28.0,65,29.53,10.0,Variable,3.5,-,N/A,,Partly Cloudy,0,2013-05-01 18:54:00
11:54 AM,45.0,28.0,52,29.53,10.0,WSW,5.8,-,N/A,,Scattered Clouds,250,2013-05-01 19:54:00
12:54 PM,46.0,27.0,47,29.53,10.0,WNW,3.5,-,N/A,,Scattered Clouds,290,2013-05-01 20:54:00
1:54 PM,45.0,26.1,48,29.52,10.0,West,3.5,-,N/A,,Scattered Clouds,260,2013-05-01 21:54:00
2:54 PM,46.0,28.0,50,29.53,10.0,SSW,8.1,-,N/A,,Mostly Cloudy,200,2013-05-01 22:54:00
3:54 PM,46.0,28.0,50,29.52,10.0,Calm,Calm,-,N/A,,Mostly Cloudy,0,2013-05-01 23:54:00
4:54 PM,44.1,30.9,60,29.53,10.0,SSW,3.5,-,0.00,Rain,Light Rain,200,2013-05-02 00:54:00
5:54 PM,45.0,30.9,58,29.53,10.0,North,4.6,-,0.00,Rain,Light Rain,350,2013-05-02 01:54:00
6:54 PM,43.0,33.1,68,29.54,10.0,NW,10.4,-,0.00,Rain,Light Rain,310,2013-05-02 02:54:00
7:54 PM,41.0,35.1,79,29.55,10.0,ENE,3.5,-,0.01,Rain,Light Rain,60,2013-05-02 03:54:00
8:54 PM,39.9,37.0,89,29.56,10.0,Calm,Calm,-,0.01,Rain,Light Rain,0,2013-05-02 04:54:00
9:54 PM,39.0,37.0,93,29.58,9.0,SW,4.6,-,0.01,Rain,Light Rain,220,2013-05-02 05:54:00
10:54 PM,37.0,36.0,96,29.60,10.0,SW,6.9,-,0.00,Rain,Light Rain,220,2013-05-02 06:54:00
11:54 PM,37.0,36.0,96,29.61,10.0,WSW,5.8,-,0.00,Rain,Light Rain,240,2013-05-02 07:54:00